| time (UTC) | temp F | wind direction | speed knots | gust knots | rain 1hr in | rain 24hr in | rain mn in | humidity % | barometer mb |
| 20260903170512 | 0 | 155 | 2.6 | 3.5 | 0.00 | 0.00 | 0.00 | ||
| 20260903170007 | 0 | 155 | 2.6 | 3.5 | 0.00 | 0.00 | 0.00 | ||
| 20260903165505 | 0 | 179 | 0.0 | 2.6 | 0.00 | 0.00 | 0.00 | ||
| 20260903165001 | 0 | 145 | 2.6 | 4.3 | 0.00 | 0.00 | 0.00 | 1016.6 | |
| 20260903164455 | 0 | 162 | 0.9 | 2.6 | 0.00 | 0.00 | 0.00 | 1016.6 | |
| 20260903163955 | 0 | 162 | 0.9 | 2.6 | 0.00 | 0.00 | 0.00 | 1016.6 | |
| 20260903163451 | 0 | 227 | 1.7 | 5.2 | 0.00 | 0.00 | 0.00 | 1016.6 | |
| 20260903162946 | 0 | 237 | 2.6 | 4.3 | 0.00 | 0.00 | 0.00 | 1016.6 | |
| 20260903162437 | 0 | 233 | 1.7 | 2.6 | 0.00 | 0.00 | 0.00 | 1016.6 | |
| 20260903161933 | 0 | 230 | 2.6 | 4.3 | 0.00 | 0.00 | 0.00 | 1016.6 | |
| 20260903161428 | 0 | 236 | 1.7 | 4.3 | 0.00 | 0.00 | 0.00 | 1016.6 | |
| 20260903160924 | 0 | 227 | 2.6 | 3.5 | 0.00 | 0.00 | 0.00 | 1016.6 | |
| 20260903160423 | 0 | 233 | 1.7 | 2.6 | 0.00 | 0.00 | 0.00 | 1016.6 | |
| 20260903155921 | 0 | 205 | 0.0 | 1.7 | 0.00 | 0.00 | 0.00 | 1016.6 | |
| 20260903155417 | 0 | 183 | 1.7 | 2.6 | 0.00 | 0.00 | 0.00 | 1016.6 | |
| 20260903154913 | 0 | 220 | 1.7 | 2.6 | 0.00 | 0.00 | 0.00 | 1016.8 | |
| 20260903154408 | 0 | 207 | 1.7 | 3.5 | 0.00 | 0.00 | 0.00 | 1016.5 | |
| 20260903153903 | 0 | 293 | 0.9 | 1.7 | 0.00 | 0.00 | 0.00 | 1016.6 | |
| 20260903153358 | 0 | 194 | 0.9 | 1.7 | 0.00 | 0.00 | 0.00 | 1016.7 | |
| 20260903152855 | 0 | 211 | 1.7 | 1.7 | 0.00 | 0.00 | 0.00 | 1016.8 | |
| 20260903152350 | 0 | 213 | 1.7 | 3.5 | 0.00 | 0.00 | 0.00 | 1016.8 | |
| 20260903151846 | 0 | 250 | 3.5 | 4.3 | 0.00 | 0.00 | 0.00 | 1016.6 | |
| 20260903151341 | 0 | 209 | 2.6 | 3.5 | 0.00 | 0.00 | 0.00 | 1016.6 | |
| 20260903150840 | 0 | 243 | 1.7 | 2.6 | 0.00 | 0.00 | 0.00 | 1016.7 | |
| 20260903150335 | 0 | 217 | 0.0 | 3.5 | 0.00 | 0.00 | 0.00 | 1016.8 | |
| 20260903145830 | 0 | 232 | 3.5 | 5.2 | 0.00 | 0.00 | 0.00 | 1016.7 | |
| 20260903145326 | 0 | 194 | 0.9 | 3.5 | 0.00 | 0.00 | 0.00 | 1016.8 | |
| 20260903144825 | 0 | 255 | 3.5 | 4.3 | 0.00 | 0.00 | 0.00 | 1016.8 | |
| 20260903144320 | 0 | 228 | 1.7 | 2.6 | 0.00 | 0.00 | 0.00 | 1016.8 | |
| 20260903143815 | 0 | 209 | 2.6 | 2.6 | 0.00 | 0.00 | 0.00 | 1016.7 | |
| 20260903143312 | 0 | 228 | 2.6 | 4.3 | 0.00 | 0.00 | 0.00 | 1016.6 | |
| 20260903142808 | 0 | 213 | 2.6 | 2.6 | 0.00 | 0.00 | 0.00 | 1016.8 | |
| 20260903142306 | 0 | 213 | 2.6 | 2.6 | 0.00 | 0.00 | 0.00 | 1016.6 | |
| 20260903141759 | 0 | 215 | 2.6 | 4.3 | 0.00 | 0.00 | 0.00 | 1016.8 | |
| 20260903141255 | 0 | 229 | 1.7 | 2.6 | 0.00 | 0.00 | 0.00 | 1016.8 | |
| 20260903140754 | 0 | 279 | 2.6 | 2.6 | 0.00 | 0.00 | 0.00 | 1016.6 | |
| 20260903140250 | 0 | 227 | 1.7 | 2.6 | 0.00 | 0.00 | 0.00 | 1016.7 | |
| 20260903135745 | 0 | 219 | 0.0 | 2.6 | 0.00 | 0.00 | 0.00 | 1016.9 | |
| 20260903135240 | 0 | 232 | 1.7 | 2.6 | 0.00 | 0.00 | 0.00 | 1016.7 | |
| 20260903134739 | 0 | 193 | 1.7 | 2.6 | 0.00 | 0.00 | 0.00 | 1016.8 | |
| 20260903134235 | 0 | 239 | 1.7 | 2.6 | 0.00 | 0.00 | 0.00 | 1016.9 | |
| 20260903133732 | 0 | 213 | 1.7 | 1.7 | 0.00 | 0.00 | 0.00 | 1016.9 | |
| 20260903133229 | 0 | 213 | 1.7 | 1.7 | 0.00 | 0.00 | 0.00 | 1016.7 | |
| 20260903132724 | 0 | 195 | 1.7 | 6.1 | 0.00 | 0.00 | 0.00 | 1016.7 | |
| 20260903132223 | 0 | 221 | 0.9 | 0.9 | 0.00 | 0.00 | 0.00 | 1016.9 | |
| 20260903131719 | 0 | 221 | 0.9 | 0.9 | 0.00 | 0.00 | 0.00 | 1016.9 | |
| 20260903131213 | 0 | 221 | 0.9 | 0.9 | 0.00 | 0.00 | 0.00 | 1016.9 | |
| 20260903130708 | 0 | 221 | 0.9 | 2.6 | 0.00 | 0.00 | 0.00 | 1016.9 | |
| 20260903130202 | 0 | 217 | 0.9 | 1.7 | 0.00 | 0.00 | 0.00 | 1016.8 | |
| 20260903125701 | 0 | 145 | 0.0 | 1.7 | 0.00 | 0.00 | 0.00 | 1016.7 | |
| 20260903125156 | 0 | 246 | 0.0 | 0.9 | 0.00 | 0.00 | 0.00 | 1016.7 | |
| 20260903124655 | 0 | 220 | 0.9 | 1.7 | 0.00 | 0.00 | 0.00 | 1016.6 | |
| 20260903124150 | 0 | 231 | 0.0 | 1.7 | 0.00 | 0.00 | 0.00 | 1016.3 | |
| 20260903123649 | 0 | 178 | 1.7 | 1.7 | 0.00 | 0.00 | 0.00 | 1016.3 | |
| 20260903123148 | 0 | 178 | 1.7 | 1.7 | 0.00 | 0.00 | 0.00 | 1016.3 | |
| 20260903122648 | 0 | 234 | 0.9 | 2.6 | 0.00 | 0.00 | 0.00 | 1016.3 | |
| 20260903122143 | 0 | 205 | 1.7 | 2.6 | 0.00 | 0.00 | 0.00 | 1016.3 | |
| 20260903121641 | 0 | 198 | 0.0 | 2.6 | 0.00 | 0.00 | 0.00 | 1016.4 | |
| 20260903121138 | 0 | 195 | 2.6 | 4.3 | 0.00 | 0.00 | 0.00 | 1016.4 | |
| 20260903120636 | 0 | 184 | 0.0 | 1.7 | 0.00 | 0.00 | 0.00 | 1016.4 | |
| 20260903120131 | 0 | 230 | 0.0 | 0.9 | 0.00 | 0.00 | 0.00 | 1016.4 | |
| 20260903115629 | 0 | 217 | 0.9 | 3.5 | 0.00 | 0.00 | 0.00 | 1016.3 | |
| 20260903115125 | 0 | 242 | 0.0 | 1.7 | 0.00 | 0.00 | 0.00 | 1016.3 | |
| 20260903114620 | 0 | 152 | 4.3 | 7.0 | 0.00 | 0.00 | 0.00 | 1016.3 | |
| 20260903114115 | 0 | 202 | 0.9 | 5.2 | 0.00 | 0.00 | 0.00 | 1016.3 | |
| 20260903113610 | 0 | 204 | 1.7 | 4.3 | 0.00 | 0.00 | 0.00 | 1016.3 | |
| 20260903113107 | 0 | 200 | 0.9 | 6.1 | 0.00 | 0.00 | 0.00 | 1016.4 | |
| 20260903112603 | 0 | 235 | 0.0 | 1.7 | 0.00 | 0.00 | 0.00 | 1016.4 | |
| 20260903112103 | 0 | 208 | 0.9 | 2.6 | 0.00 | 0.00 | 0.00 | 1016.4 | |
| 20260903111602 | 0 | 212 | 0.0 | 1.7 | 0.00 | 0.00 | 0.00 | 1016.4 | |
| 20260903111057 | 0 | 210 | 0.9 | 2.6 | 0.00 | 0.00 | 0.00 | 1016.4 | |
| 20260903110553 | 0 | 224 | 0.0 | 2.6 | 0.00 | 0.00 | 0.00 | 1016.4 | |
| 20260903110048 | 0 | 195 | 0.0 | 2.6 | 0.00 | 0.00 | 0.00 | 1016.0 | |
| 20260903105542 | 0 | 225 | 1.7 | 4.3 | 0.00 | 0.00 | 0.00 | 1016.0 | |
| 20260903105032 | 0 | 223 | 1.7 | 4.3 | 0.00 | 0.00 | 0.00 | 1016.0 | |
| 20260903104532 | 0 | 188 | 0.9 | 1.7 | 0.00 | 0.00 | 0.00 | 1015.9 | |
| 20260903104028 | 0 | 123 | 0.9 | 2.6 | 0.00 | 0.00 | 0.00 | 1015.9 | |
| 20260903103523 | 0 | 219 | 1.7 | 2.6 | 0.00 | 0.00 | 0.00 | 1015.9 | |
| 20260903103020 | 0 | 229 | 1.7 | 2.6 | 0.00 | 0.00 | 0.00 | 1015.9 | |
| 20260903102515 | 0 | 210 | 0.9 | 2.6 | 0.00 | 0.00 | 0.00 | 1015.9 | |
| 20260903102014 | 0 | 204 | 0.9 | 2.6 | 0.00 | 0.00 | 0.00 | 1015.9 | |
| 20260903101508 | 0 | 171 | 0.9 | 2.6 | 0.00 | 0.00 | 0.00 | 1015.9 | |
| 20260903101004 | 0 | 197 | 1.7 | 3.5 | 0.00 | 0.00 | 0.00 | 1015.9 | |
| 20260903100458 | 0 | 213 | 0.0 | 3.5 | 0.00 | 0.00 | 0.00 | 1015.9 | |
| 20260903095956 | 0 | 248 | 0.9 | 3.5 | 0.00 | 0.00 | 0.00 | 1015.9 | |
| 20260903095450 | 0 | 211 | 1.7 | 2.6 | 0.00 | 0.00 | 0.00 | 1015.9 | |
| 20260903094945 | 0 | 199 | 1.7 | 2.6 | 0.00 | 0.00 | 0.00 | 1015.9 | |
| 20260903094445 | 0 | 215 | 1.7 | 1.7 | 0.00 | 0.00 | 0.00 | 1015.9 | |
| 20260903093941 | 0 | 224 | 1.7 | 2.6 | 0.00 | 0.00 | 0.00 | 1015.9 | |
| 20260903093436 | 0 | 205 | 1.7 | 2.6 | 0.00 | 0.00 | 0.00 | 1015.9 | |
| 20260903092931 | 0 | 255 | 0.9 | 3.5 | 0.00 | 0.00 | 0.00 | 1016.1 | |
| 20260903092426 | 0 | 210 | 0.9 | 2.6 | 0.00 | 0.00 | 0.00 | 1016.3 | |
| 20260903091924 | 0 | 220 | 1.7 | 8.7 | 0.00 | 0.00 | 0.00 | 1016.3 | |
| 20260903091423 | 0 | 162 | 0.9 | 2.6 | 0.00 | 0.00 | 0.00 | 1016.3 | |
| 20260903090918 | 0 | 213 | 1.7 | 3.5 | 0.00 | 0.00 | 0.00 | 1016.2 | |
| 20260903090414 | 0 | 232 | 2.6 | 3.5 | 0.00 | 0.00 | 0.00 | 1016.2 | |
| 20260903085912 | 0 | 219 | 0.0 | 2.6 | 0.00 | 0.00 | 0.00 | 1016.2 | |
| 20260903085411 | 0 | 72 | 0.0 | 3.5 | 0.00 | 0.00 | 0.00 | 1016.2 | |
| 20260903084911 | 0 | 201 | 2.6 | 4.3 | 0.00 | 0.00 | 0.00 | 1016.2 | |
| 20260903084409 | 0 | 216 | 2.6 | 5.2 | 0.00 | 0.00 | 0.00 | 1016.2 | |
| 20260903083905 | 0 | 226 | 0.0 | 2.6 | 0.00 | 0.00 | 0.00 | 1016.2 | |
| 20260903083401 | 0 | 198 | 0.9 | 1.7 | 0.00 | 0.00 | 0.00 | ||
| 20260903082859 | 0 | 128 | 0.9 | 4.3 | 0.00 | 0.00 | 0.00 | ||
| 20260903082354 | 0 | 220 | 2.6 | 2.6 | 0.00 | 0.00 | 0.00 | ||
| 20260903081850 | 0 | 132 | 3.5 | 4.3 | 0.00 | 0.00 | 0.00 | ||
| 20260903081345 | 0 | 190 | 0.9 | 2.6 | 0.00 | 0.00 | 0.00 | ||
| 20260903080841 | 0 | 338 | 0.0 | 1.7 | 0.00 | 0.00 | 0.00 | ||
| 20260903080338 | 0 | 194 | 1.7 | 2.6 | 0.00 | 0.00 | 0.00 | 1016.3 | |
| 20260903075838 | 0 | 230 | 1.7 | 2.6 | 0.00 | 0.00 | 0.00 | 1016.3 | |
| 20260903075333 | 0 | 215 | 1.7 | 2.6 | 0.00 | 0.00 | 0.00 | 1016.3 | |
| 20260903074833 | 0 | 207 | 1.7 | 3.5 | 0.00 | 0.00 | 0.00 | 1016.3 | |
| 20260903074327 | 0 | 220 | 0.0 | 3.5 | 0.00 | 0.00 | 0.00 | 1016.3 | |
| 20260903073823 | 0 | 199 | 2.6 | 4.3 | 0.00 | 0.00 | 0.00 | 1016.3 | |
| 20260903073318 | 0 | 150 | 1.7 | 2.6 | 0.00 | 0.00 | 0.00 | 1016.3 | |
| 20260903072814 | 0 | 224 | 0.0 | 1.7 | 0.00 | 0.00 | 0.00 | 1016.3 | |
| 20260903072310 | 0 | 205 | 1.7 | 2.6 | 0.00 | 0.00 | 0.00 | 1016.3 | |
| 20260903071806 | 0 | 235 | 1.7 | 2.6 | 0.00 | 0.00 | 0.00 | 1016.3 | |
| 20260903071301 | 0 | 195 | 2.6 | 6.1 | 0.00 | 0.00 | 0.00 | 1016.3 | |
| 20260903070756 | 0 | 215 | 2.6 | 5.2 | 0.00 | 0.00 | 0.00 | 1016.3 | |
| 20260903070252 | 0 | 111 | 1.7 | 2.6 | 0.00 | 0.00 | 0.00 | ||
| 20260903065747 | 0 | 154 | 1.7 | 1.7 | 0.00 | 0.00 | 0.00 | ||
| 20260903065246 | 0 | 192 | 1.7 | 2.6 | 0.00 | 0.00 | 0.00 | ||
| 20260903064745 | 0 | 230 | 0.0 | 1.7 | 0.00 | 0.00 | 0.00 | ||
| 20260903064240 | 0 | 163 | 0.9 | 2.6 | 0.00 | 0.00 | 0.00 | ||
| 20260903063737 | 0 | 153 | 0.9 | 4.3 | 0.00 | 0.00 | 0.00 | ||
| 20260903063231 | 0 | 153 | 0.9 | 4.3 | 0.00 | 0.00 | 0.00 | ||
| 20260903062728 | 0 | 193 | 0.0 | 0.9 | 0.00 | 0.00 | 0.00 | ||
| 20260903062227 | 0 | 134 | 3.5 | 4.3 | 0.00 | 0.00 | 0.00 | ||
| 20260903061724 | 0 | 134 | 3.5 | 4.3 | 0.00 | 0.00 | 0.00 | ||
| 20260903061222 | 0 | 219 | 0.9 | 0.9 | 0.00 | 0.00 | 0.00 | ||
| 20260903060718 | 0 | 197 | 0.0 | 1.7 | 0.00 | 0.00 | 0.00 | ||
| 20260903060218 | 0 | 110 | 4.3 | 5.2 | 0.00 | 0.00 | 0.00 | ||
| 20260903055715 | 0 | 110 | 4.3 | 5.2 | 0.00 | 0.00 | 0.00 | ||
| 20260903055214 | 0 | 110 | 4.3 | 5.2 | 0.00 | 0.00 | 0.00 | ||
| 20260903054709 | 0 | 110 | 4.3 | 5.2 | 0.00 | 0.00 | 0.00 | ||
| 20260903054204 | 0 | 110 | 4.3 | 5.2 | 0.00 | 0.00 | 0.00 | ||
| 20260903053701 | 0 | 110 | 4.3 | 5.2 | 0.00 | 0.00 | 0.00 | ||
| 20260903053155 | 0 | 184 | 1.7 | 1.7 | 0.00 | 0.00 | 0.00 | ||
| 20260903052652 | 0 | 184 | 1.7 | 1.7 | 0.00 | 0.00 | 0.00 | ||
| 20260903052147 | 0 | 134 | 0.0 | 3.5 | 0.00 | 0.00 | 0.00 | ||
| 20260903051642 | 0 | 291 | 0.9 | 4.3 | 0.00 | 0.00 | 0.00 | ||
| 20260903051137 | 0 | 291 | 0.9 | 4.3 | 0.00 | 0.00 | 0.00 | ||
| 20260903050632 | 0 | 171 | 0.9 | 1.7 | 0.00 | 0.00 | 0.00 | ||
| 20260903050126 | 0 | 167 | 1.7 | 3.5 | 0.00 | 0.00 | 0.00 | ||
| 20260903045626 | 0 | 0.0 | 0.0 | 0.00 | 0.22 | 0.22 | |||
| 20260903045123 | 0 | 0.0 | 0.0 | 0.00 | 0.22 | 0.22 | |||
| 20260903044618 | 0 | 145 | 1.7 | 3.5 | 0.00 | 0.22 | 0.22 | 1016.7 | |
| 20260903044114 | 0 | 145 | 1.7 | 3.5 | 0.00 | 0.22 | 0.22 | 1016.7 | |
| 20260903043610 | 0 | 145 | 1.7 | 3.5 | 0.00 | 0.22 | 0.22 | 1016.7 | |
| 20260903043109 | 0 | 145 | 1.7 | 3.5 | 0.00 | 0.22 | 0.22 | 1016.7 | |
| 20260903042604 | 0 | 145 | 1.7 | 3.5 | 0.00 | 0.22 | 0.22 | 1016.7 | |
| 20260903042059 | 0 | 145 | 1.7 | 3.5 | 0.00 | 0.22 | 0.22 | 1016.7 | |
| 20260903041556 | 0 | 145 | 1.7 | 3.5 | 0.00 | 0.22 | 0.22 | 1016.7 | |
| 20260903041056 | 0 | 145 | 1.7 | 3.5 | 0.00 | 0.22 | 0.22 | 1016.7 | |
| 20260903040554 | 0 | 145 | 1.7 | 3.5 | 0.00 | 0.22 | 0.22 | 1016.7 | |
| 20260903040052 | 0 | 145 | 1.7 | 3.5 | 0.00 | 0.22 | 0.22 | 1016.7 | |
| 20260903035547 | 0 | 145 | 1.7 | 3.5 | 0.00 | 0.22 | 0.22 | 1016.7 | |
| 20260903035043 | 0 | 205 | 0.9 | 4.3 | 0.00 | 0.22 | 0.22 | 1016.7 | |
| 20260903034537 | 0 | 205 | 0.9 | 4.3 | 1.32 | 0.22 | 0.22 | 1016.6 | |
| 20260903034032 | 0 | 205 | 0.9 | 4.3 | 0.00 | 0.00 | 0.00 | 1016.6 | |
| 20260903033527 | 0 | 0.0 | 0.0 | 0.00 | 0.00 | 0.00 | 1016.6 | ||
| 20260903033023 | 0 | 0.0 | 0.0 | 0.00 | 0.00 | 0.00 | 1016.6 | ||
| 20260903032518 | 0 | 0.0 | 0.0 | 0.00 | 0.00 | 0.00 | 1015.5 | ||
| 20260903032013 | 0 | 0.0 | 0.0 | 0.00 | 0.00 | 0.00 | 1015.5 | ||
| 20260903031513 | 0 | 0.0 | 0.0 | 0.00 | 0.00 | 0.00 | 1015.5 | ||
| 20260903031008 | 0 | 0.0 | 0.0 | 0.00 | 0.00 | 0.00 | 1015.5 | ||
| 20260903030504 | 0 | 0.0 | 0.0 | 0.00 | 0.00 | 0.00 | 1015.5 | ||
| 20260903025959 | 0 | 0.0 | 0.0 | 0.00 | 0.00 | 0.00 | 1015.5 | ||
| 20260903025455 | 0 | 0.0 | 0.0 | 0.00 | 0.00 | 0.00 | 1015.5 | ||
| 20260903024950 | 0 | 0.0 | 0.0 | 0.00 | 0.00 | 0.00 | 1015.5 | ||
| 20260903024449 | 0 | 0.0 | 0.0 | 0.00 | 0.00 | 0.00 | 1015.5 | ||
| 20260903023944 | 0 | 0.0 | 0.0 | 0.00 | 0.00 | 0.00 | 1015.5 | ||
| 20260903023440 | 0 | 0.0 | 0.0 | 0.00 | 0.00 | 0.00 | 1015.5 | ||
| 20260903022935 | 0 | 0.0 | 0.0 | 0.00 | 0.00 | 0.00 | 1014.9 | ||
| 20260903022434 | 0 | 0.0 | 0.0 | 0.00 | 0.00 | 0.00 | 1015.1 | ||
| 20260903021932 | 0 | 0.0 | 0.0 | 0.00 | 0.00 | 0.00 | 1014.9 | ||
| 20260903021428 | 0 | 0.0 | 0.0 | 0.00 | 0.00 | 0.00 | 1014.8 | ||
| 20260903020929 | 0 | 0.0 | 0.0 | 0.00 | 0.00 | 0.00 | 1014.7 | ||
| 20260903020424 | 0 | 0.0 | 0.0 | 0.00 | 0.00 | 0.00 | 1014.7 | ||
| 20260903015919 | 0 | 0.0 | 0.0 | 0.00 | 0.00 | 0.00 | 1014.6 | ||
| 20260903015415 | 0 | 0.0 | 0.0 | 0.00 | 0.00 | 0.00 | 1014.5 | ||
| 20260903014910 | 0 | 0.0 | 0.0 | 0.00 | 0.00 | 0.00 | 1014.3 | ||
| 20260903014409 | 0 | 0.0 | 0.0 | 0.00 | 0.00 | 0.00 | 1014.4 | ||
| 20260903013904 | 0 | 0.0 | 0.0 | 0.00 | 0.00 | 0.00 | 1014.2 | ||
| 20260903013403 | 0 | 0.0 | 0.0 | 0.00 | 0.00 | 0.00 | 1014.1 | ||
| 20260903012903 | 0 | 0.0 | 0.0 | 0.00 | 0.00 | 0.00 | 1014.4 | ||
| 20260903012356 | 0 | 0.0 | 0.0 | 0.00 | 0.00 | 0.00 | 1014.3 | ||
| 20260903011855 | 0 | 0.0 | 0.0 | 0.00 | 0.00 | 0.00 | 1014.2 | ||
| 20260903011350 | 0 | 0.0 | 0.0 | 0.00 | 0.00 | 0.00 | 1014.3 | ||
| 20260903010846 | 0 | 0.0 | 0.0 | 0.00 | 0.00 | 0.00 | 1014.3 | ||
| 20260903010341 | 0 | 0.0 | 0.0 | 0.00 | 0.00 | 0.00 | 1014.0 | ||
| 20260903005839 | 0 | 0.0 | 0.0 | 0.00 | 0.00 | 0.00 | 1014.1 | ||
| 20260903005335 | 0 | 0.0 | 0.0 | 0.00 | 0.00 | 0.00 | 1014.3 | ||
| 20260903004831 | 0 | 0.0 | 0.0 | 0.00 | 0.00 | 0.00 | 1014.3 | ||
| 20260903004326 | 0 | 0.0 | 0.0 | 0.00 | 0.00 | 0.00 | 1014.3 | ||
| 20260903003821 | 0 | 0.0 | 0.0 | 0.00 | 0.00 | 0.00 | 1014.2 | ||
| 20260903003316 | 0 | 0.0 | 0.0 | 0.00 | 0.00 | 0.00 | 1014.0 | ||
| 20260903002816 | 0 | 0.0 | 0.0 | 0.00 | 0.00 | 0.00 | 1014.1 | ||
| 20260903002315 | 0 | 0.0 | 0.0 | 0.00 | 0.00 | 0.00 | 1014.1 | ||
| 20260903001810 | 0 | 232 | 1.7 | 2.6 | 0.00 | 0.00 | 0.00 | 1014.1 | |
| 20260903001306 | 0 | 232 | 1.7 | 2.6 | 0.00 | 0.00 | 0.00 | 1014.2 | |
| 20260903000800 | 0 | 232 | 1.7 | 2.6 | 0.00 | 0.00 | 0.00 | 1014.2 | |
| 20260903000256 | 0 | 232 | 1.7 | 2.6 | 0.00 | 0.00 | 0.00 | 1013.9 | |
| 20260902235753 | 0 | 232 | 1.7 | 2.6 | 0.00 | 0.00 | 0.00 | 1014.1 | |
| 20260902235248 | 0 | 232 | 1.7 | 2.6 | 0.00 | 0.00 | 0.00 | 1014.1 | |
| 20260902234748 | 0 | 232 | 1.7 | 2.6 | 0.00 | 0.00 | 0.00 | 1013.8 | |
| 20260902234242 | 0 | 232 | 1.7 | 2.6 | 0.00 | 0.00 | 0.00 | 1014.0 | |
| 20260902233742 | 0 | 232 | 1.7 | 2.6 | 0.00 | 0.00 | 0.00 | 1014.0 | |
| 20260902233236 | 0 | 232 | 1.7 | 2.6 | 0.00 | 0.00 | 0.00 | 1014.0 | |
| 20260902232734 | 0 | 232 | 1.7 | 2.6 | 0.00 | 0.00 | 0.00 | 1014.0 | |
| 20260902232228 | 0 | 232 | 1.7 | 2.6 | 0.00 | 0.00 | 0.00 | 1014.0 | |
| 20260902231723 | 0 | 229 | 3.5 | 5.2 | 0.00 | 0.00 | 0.00 | 1014.0 | |
| 20260902231218 | 0 | 229 | 3.5 | 5.2 | 0.00 | 0.00 | 0.00 | 1013.9 | |
| 20260902230713 | 0 | 229 | 3.5 | 5.2 | 0.00 | 0.00 | 0.00 | 1014.0 | |
| 20260902230212 | 0 | 229 | 3.5 | 5.2 | 0.00 | 0.00 | 0.00 | 1013.8 | |
| 20260902225706 | 0 | 229 | 3.5 | 5.2 | 0.00 | 0.00 | 0.00 | 1013.9 | |
| 20260902225201 | 0 | 226 | 1.7 | 2.6 | 0.00 | 0.00 | 0.00 | 1014.0 | |
| 20260902224659 | 0 | 0.0 | 0.0 | 0.00 | 0.00 | 0.00 | 1013.8 | ||
| 20260902224155 | 0 | 0.0 | 0.0 | 0.00 | 0.00 | 0.00 | 1013.8 | ||
| 20260902223651 | 0 | 0.0 | 0.0 | 0.00 | 0.00 | 0.00 | 1013.7 | ||
| 20260902223150 | 0 | 0.0 | 0.0 | 0.00 | 0.00 | 0.00 | 1013.8 | ||
| 20260902222649 | 0 | 0.0 | 0.0 | 0.00 | 0.00 | 0.00 | 1013.8 | ||
| 20260902222148 | 0 | 0.0 | 0.0 | 0.00 | 0.00 | 0.00 | 1013.9 | ||
| 20260902221643 | 0 | 0.0 | 0.0 | 0.00 | 0.00 | 0.00 | 1013.7 | ||
| 20260902221138 | 0 | 0.0 | 0.0 | 0.00 | 0.00 | 0.00 | 1013.8 | ||
| 20260902220634 | 0 | 0.0 | 0.0 | 0.00 | 0.00 | 0.00 | 1013.9 | ||
| 20260902220133 | 0 | 332 | 1.7 | 2.6 | 0.00 | 0.00 | 0.00 | 1013.9 | |
| 20260902215629 | 0 | 332 | 1.7 | 2.6 | 0.00 | 0.00 | 0.00 | 1013.9 | |
| 20260902215124 | 0 | 332 | 1.7 | 2.6 | 0.00 | 0.00 | 0.00 | 1013.8 | |
| 20260902214619 | 0 | 332 | 1.7 | 2.6 | 0.00 | 0.00 | 0.00 | 1013.8 | |
| 20260902214118 | 0 | 332 | 1.7 | 2.6 | 0.00 | 0.00 | 0.00 | 1013.8 | |
| 20260902213615 | 0 | 332 | 1.7 | 2.6 | 0.00 | 0.00 | 0.00 | 1014.0 | |
| 20260902213113 | 0 | 332 | 1.7 | 2.6 | 0.00 | 0.00 | 0.00 | 1013.9 | |
| 20260902212609 | 0 | 332 | 1.7 | 2.6 | 0.00 | 0.00 | 0.00 | 1013.9 | |
| 20260902212105 | 0 | 332 | 1.7 | 2.6 | 0.00 | 0.00 | 0.00 | 1014.0 | |
| 20260902211601 | 0 | 332 | 1.7 | 2.6 | 0.00 | 0.00 | 0.00 | 1014.0 | |
| 20260902211056 | 0 | 332 | 1.7 | 2.6 | 0.00 | 0.00 | 0.00 | 1014.1 | |
| 20260902210549 | 0 | 332 | 1.7 | 2.6 | 0.00 | 0.00 | 0.00 | 1014.0 | |
| 20260902210044 | 0 | 251 | 1.7 | 1.7 | 0.00 | 0.00 | 0.00 | 1014.2 | |
| 20260902205543 | 0 | 251 | 1.7 | 1.7 | 0.00 | 0.00 | 0.00 | 1014.0 | |
| 20260902205039 | 0 | 251 | 1.7 | 1.7 | 0.00 | 0.00 | 0.00 | 1014.2 | |
| 20260902204539 | 0 | 251 | 1.7 | 1.7 | 0.00 | 0.00 | 0.00 | 1014.2 | |
| 20260902204033 | 0 | 251 | 1.7 | 1.7 | 0.00 | 0.00 | 0.00 | 1014.2 | |
| 20260902203529 | 0 | 251 | 1.7 | 1.7 | 0.00 | 0.00 | 0.00 | 1014.5 | |
| 20260902203028 | 0 | 251 | 1.7 | 1.7 | 0.00 | 0.00 | 0.00 | 1014.5 | |
| 20260902202524 | 0 | 258 | 0.9 | 2.6 | 0.00 | 0.00 | 0.00 | 1014.5 | |
| 20260902202021 | 0 | 258 | 0.9 | 2.6 | 0.00 | 0.00 | 0.00 | 1014.7 | |
| 20260902201516 | 0 | 258 | 0.9 | 2.6 | 0.00 | 0.00 | 0.00 | 1014.7 | |
| 20260902201015 | 0 | 258 | 0.9 | 2.6 | 0.00 | 0.00 | 0.00 | 1014.8 | |
| 20260902200510 | 0 | 258 | 0.9 | 2.6 | 0.00 | 0.00 | 0.00 | 1015.0 | |
| 20260902200007 | 0 | 258 | 0.9 | 2.6 | 0.00 | 0.00 | 0.00 | 1015.0 | |
| 20260902195502 | 0 | 258 | 0.9 | 2.6 | 0.00 | 0.00 | 0.00 | 1015.1 | |
| 20260902195000 | 0 | 258 | 0.9 | 2.6 | 0.00 | 0.00 | 0.00 | 1015.2 | |
| 20260902194455 | 0 | 258 | 0.9 | 2.6 | 0.00 | 0.00 | 0.00 | 1015.4 | |
| 20260902193950 | 0 | 258 | 0.9 | 2.6 | 0.00 | 0.00 | 0.00 | 1015.3 | |
| 20260902193446 | 0 | 258 | 0.9 | 2.6 | 0.00 | 0.00 | 0.00 | 1015.2 | |
| 20260902192945 | 0 | 258 | 0.9 | 2.6 | 0.00 | 0.00 | 0.00 | 1015.4 | |
| 20260902192444 | 0 | 94 | 1.7 | 2.6 | 0.00 | 0.00 | 0.00 | 1015.5 | |
| 20260902191943 | 0 | 94 | 1.7 | 2.6 | 0.00 | 0.00 | 0.00 | 1015.6 | |
| 20260902191438 | 0 | 94 | 1.7 | 2.6 | 0.00 | 0.00 | 0.00 | 1015.7 | |
| 20260902190934 | 0 | 280 | 1.7 | 1.7 | 0.00 | 0.00 | 0.00 | 1015.8 | |
| 20260902190429 | 0 | 287 | 0.0 | 3.5 | 0.00 | 0.00 | 0.00 | 1015.9 | |
| 20260902185924 | 0 | 130 | 2.6 | 5.2 | 0.00 | 0.00 | 0.00 | 1016.0 | |
| 20260902185421 | 0 | 143 | 0.9 | 1.7 | 0.00 | 0.00 | 0.00 | 1016.1 | |
| 20260902184915 | 0 | 121 | 2.6 | 2.6 | 0.00 | 0.00 | 0.00 | 1016.3 | |
| 20260902184410 | 0 | 277 | 2.6 | 2.6 | 0.00 | 0.00 | 0.00 | 1016.4 | |
| 20260902183906 | 0 | 220 | 0.9 | 2.6 | 0.00 | 0.00 | 0.00 | 1016.5 | |
| 20260902183402 | 0 | 249 | 0.0 | 0.9 | 0.00 | 0.00 | 0.00 | 1016.3 | |
| 20260902182858 | 0 | 279 | 2.6 | 3.5 | 0.00 | 0.00 | 0.00 | 1016.5 | |
| 20260902182354 | 0 | 202 | 2.6 | 3.5 | 0.00 | 0.00 | 0.00 | 1016.4 | |
| 20260902181850 | 0 | 206 | 2.6 | 3.5 | 0.00 | 0.00 | 0.00 | 1016.7 | |
| 20260902181345 | 0 | 228 | 1.7 | 2.6 | 0.00 | 0.00 | 0.00 | 1016.9 | |
| 20260902180839 | 0 | 37 | 1.7 | 3.5 | 0.00 | 0.00 | 0.00 | 1017.1 | |
| 20260902180335 | 0 | 281 | 0.0 | 3.5 | 0.00 | 0.00 | 0.00 | 1017.0 | |
| 20260902175830 | 0 | 221 | 1.7 | 1.7 | 0.00 | 0.00 | 0.00 | 1017.1 | |
| 20260902175325 | 0 | 191 | 1.7 | 2.6 | 0.00 | 0.00 | 0.00 | 1017.3 | |
| 20260902174815 | 0 | 217 | 1.7 | 3.5 | 0.00 | 0.00 | 0.00 | 1017.8 | |
| 20260902174312 | 0 | 177 | 0.0 | 2.6 | 0.00 | 0.00 | 0.00 | 1017.6 | |
| 20260902173807 | 0 | 251 | 2.6 | 4.3 | 0.00 | 0.00 | 0.00 | 1017.9 | |
| 20260902173301 | 0 | 242 | 1.7 | 2.6 | 0.00 | 0.00 | 0.00 | 1017.6 | |
| 20260902172755 | 0 | 235 | 3.5 | 4.3 | 0.00 | 0.00 | 0.00 | 1017.6 | |
| 20260902172255 | 0 | 235 | 3.5 | 4.3 | 0.00 | 0.00 | 0.00 | 1017.9 | |
| 20260902171750 | 0 | 198 | 1.7 | 3.5 | 0.00 | 0.00 | 0.00 | 1018.0 | |
| 20260902171245 | 0 | 268 | 1.7 | 2.6 | 0.00 | 0.00 | 0.00 | 1018.1 | |
| 20260902170742 | 0 | 268 | 1.7 | 2.6 | 0.00 | 0.00 | 0.00 | 1018.3 |